Preview of NWS' New Version of Forecast
This preview is not operational and should not be used for support decisions.
Latest weather observations around

Alexandria, Alexandria International Airport (KAEX)

Using English Units (Switch to International System of Units)
Date/ Time (CDT) Wind (mph) Vis. (mi) Weather Sky Cond. Temp (°F) Rel. Humidity Wind Chill (°F) Heat Index (°F) Pressure Precip. (in)
Air Dwpt 6 hour Altimeter (inHg) Sea level (inHg) 1 hr 3 hr 6 hr
Max Min
Aug 23 11:53 SE 8 10 Mostly Clear FEW026 88 74     63%   97 29.96 29.96      
Aug 23 10:53 SSE 8 10 Clear CLR 86 74     67%   94 29.97 29.98      
Aug 23 09:53 ESE 6 10 Clear CLR 84 74     72%   91 29.97 29.98      
Aug 23 08:53 ESE 7 10 Clear CLR 80 76     87%   85 29.98 29.98      
Aug 23 07:53 SE 7 10 Clear CLR 77 75     94%   79 29.97 29.98      
Aug 23 06:53 ESE 6 10 Clear CLR 76 74     94%   78 29.95 29.96      
Aug 23 05:53 Calm 10 Clear CLR 76 74     94%   78 29.94 29.95      
Aug 23 04:53 Calm 10 Clear CLR 76 75     97%   78 29.93 29.93      
Aug 23 03:53 SSE 6 10 Clear CLR 76 75     97%   78 29.92 29.92      
Aug 23 02:53 SSE 3 10 Clear CLR 76 74     94%   78 29.93 29.93      
Aug 23 01:53 E 3 10 Clear CLR 77 74     90%   79 29.94 29.94      
Aug 23 00:53 Calm 10 Clear CLR 77 74     90%   79 29.95 29.96      
Aug 22 23:53 S 3 10 Clear CLR 77 74     90%   79 29.95 29.96      
Aug 22 22:53 S 5 10 Clear CLR 77 74     90%   79 29.95 29.95      
Aug 22 21:53 SSE 5 10 Clear CLR 79 74     85%   83 29.94 29.94      
Aug 22 20:53 SSE 5 10 Clear CLR 80 74     82%   85 29.92 29.93      
Aug 22 19:53 S 9 10 Clear CLR 84 73     70%   90 29.91 29.91      
Aug 22 18:53 S 8 10 Clear CLR 88 72     59%   95 29.89 29.9      
Aug 22 17:53 S 9 10 Clear CLR 91 72     54%   99 29.88 29.89      
Aug 22 16:53 SSE 7 10 Partly Cloudy FEW047 SCT065 93 72     51%   101 29.89 29.89      
Aug 22 15:53 SE 5 10 Mostly Clear FEW047 92 71     51%   99 29.89 29.9      
Aug 22 14:53 SSE 7 10 Partly Cloudy FEW045 SCT055 92 73     54%   101 29.91 29.91      
Aug 22 13:53 SSW 6 10 Mostly Cloudy BKN046 92 72     52%   100 29.95 29.95      
Aug 22 12:53 5 10 Mostly Clear FEW038 89 72     57%   96 29.97 29.98 0   0
Aug 22 11:53 S 8 10 Mostly Cloudy FEW037 SCT049 BKN060 85 73     68%   92 30 30.01      
Aug 22 10:53 6 10 Partly Cloudy SCT024 88 75     66%   98 30 30      
Aug 22 09:53 Calm 10 Clear CLR 83 75     77%   90 30.01 30.01      
Aug 22 08:53 S 3 10 Clear CLR 80 75     85%   85 30.01 30.02      
Aug 22 07:53 Calm 9 Clear CLR 77 75     94%   79 30.01 30.01      
Aug 22 06:53 SE 5 9 Mostly Clear FEW007 75 74     96%   77 29.99 30      
Aug 22 05:53 SE 5 9 Cloudy OVC070 75 74     96%   77 29.98 29.98      
Aug 22 04:53 ESE 3 10 Cloudy SCT049 OVC065 75 74     96%   77 29.97 29.98      
Aug 22 03:53 SE 3 10 Partly Cloudy SCT047 74 73     97%   76 29.97 29.97      
Aug 22 02:53 S 3 9 Clear CLR 74 73     97%   76 29.96 29.96      
Aug 22 01:53 SSE 5 8 Clear CLR 74 74     100%   76 29.97 29.97      
Aug 22 00:53 SE 6 9 Clear CLR 75 74     96%   77 29.97 29.98      
Aug 21 23:53 SE 5 10 Clear CLR 75 73     94%   77 29.98 29.99      
Aug 21 22:53 SSE 7 10 Clear CLR 76 74     94%   78 29.99 29.99      
Aug 21 21:53 SSE 5 10 Clear CLR 77 74     90%   79 29.98 29.99      
Aug 21 20:53 SE 8 10 Clear CLR 78 74     87%   80 29.97 29.97      
Aug 21 19:53 SSE 13 10 Clear CLR 80 74     82%   85 29.96 29.97      
Aug 21 18:53 SSE 18 10 Clear CLR 84 74     72%   91 29.95 29.96      
Aug 21 17:53 SE 9 10 Mostly Clear FEW055 94 71     48%   101 29.94 29.94      
Aug 21 16:53 Calm 10 Clear CLR 95 71     46%   103 29.94 29.95      
Aug 21 15:53 NNE 6 10 Clear CLR 94 70     46%   100 29.95 29.96      
Aug 21 14:53 NNE 6 10 Clear CLR 95 71     46%   103 29.97 29.97      
Aug 21 13:53 3 10 Clear CLR 91 73     56%   100 29.99 30      
Aug 21 12:53 NNE 7 10 Clear CLR 91 73     56%   100 30.03 30.03      
Aug 21 11:53 WNW 8 10 Partly Cloudy SCT034 89 72     57%   96 30.06 30.06      
Aug 21 10:53 W 6 10 Clear CLR 87 73     63%   95 30.06 30.07      
Aug 21 09:53 NW 6 10 Clear CLR 84 75     74%   92 30.05 30.06      
Aug 21 08:53 3 9 Clear CLR 80 76     87%   85 30.03 30.04      
Aug 21 07:53 Calm 6 Fog/Mist CLR 76 75     97%   78 30.02 30.03      
Aug 21 06:53 Calm 5 Fog/Mist CLR 73 72     96%   75 30.01 30.01      
Aug 21 05:53 Calm 8 Clear CLR 74 73     97%   76 30 30      
Aug 21 04:53 S 5 6 Fog/Mist CLR 73 73     100%   75 29.99 30      
Aug 21 03:53 SSE 3 7 Clear CLR 74 73     97%   76 29.99 30      
Aug 21 02:53 ESE 3 7 Mostly Clear FEW004 74 73     97%   76 30 30      
Aug 21 02:34 S 3 3 Fog/Mist FEW005 74 73     97%   76 30        
Aug 21 01:53 Calm 7 Clear CLR 74 74     100%   76 30.01 30.01      
Aug 21 00:53 Calm 8 Clear CLR 75 74     96%   77 30.02 30.03      
Aug 20 23:53 Calm 9 Clear CLR 76 74     94%   78 30.04 30.05      
Aug 20 22:53 Calm 10 Clear CLR 77 75     94%   79 30.04 30.05      
Aug 20 21:53 Calm 10 Partly Cloudy SCT042 78 75     90%   80 30.03 30.03      
Aug 20 20:53 Calm 10 Clear CLR 79 75     88%   83 30 30      
Aug 20 19:53 SW 3 10 Mostly Clear FEW038 FEW060 81 74     79%   86 29.99 30      
Aug 20 19:06 SSW 11 10 Mostly Cloudy FEW040 SCT050 BKN070 83 76     79%   91 29.98        
Aug 20 18:53   10 Cloudy BKN040 BKN050 OVC060 85 76     75%   94 29.98 29.99      
Aug 20 17:53 ESE 8 10 Mostly Clear FEW043 91 75     60%   102 29.97 29.97      
Aug 20 16:53 ENE 7 10 Mostly Clear FEW042 91 74     57%   101 29.97 29.97      
Aug 20 15:53 5 10 Mostly Clear FEW043 94 74     53%   104 29.98 29.98      
Aug 20 14:53 5 10 Mostly Clear FEW037 93 76     58%   106 30 30      
Aug 20 13:53 NNE 8 10 Clear CLR 93 76     58%   106 30.01 30.02      
Aug 20 12:53 ENE 6 10 Mostly Clear FEW026 FEW060 91 76     61%   103 30.04 30.04      
May 15 06:39 WNW 3 3 Clear CLR 71 67     87%   72 29.93        
May 15 05:53 Calm 4 Clear CLR 70 66     87%     29.91 29.91      
May 14 23:53 Calm 6 Clear CLR 75 69     82%   76 29.93 29.94      
May 13 13:53 NE 7 10 Mostly Cloudy BKN044 BKN055 BKN080 89 68     50%   93 30.03 30.03      
May 13 10:53 ENE 6 9 Mostly Clear FEW022 83 70     65%   87 30.08 30.09      
Notice The following observation data may not be complete
May 13 06:02   7 Mostly Cloudy BKN015 BKN020          %              
May 13 05:14 SE 6 7 Partly Cloudy SCT019 71 69     93%   72 30.02        
May 11 23:53 SSE 6 9 Clear CLR 70 65     84%     30.02 30.02      
May 11 19:53 S 11 8 Mostly Clear FEW060 82 63     53%   83 29.96 29.97      
Jun 12 04:53 E 5 10 Partly Cloudy SCT032 72 71     97%   73 29.98 29.99      
Jun 12 01:00 SSE 5 10 Mostly Cloudy BKN008 BKN014 74 73     97%   76 29.98        
Jun 11 22:16 SE 7 10 Clear   75 73     94%   77 29.99        
Jun 11 17:41 SE 5 3 Light Rain and Fog/Mist FEW036 BKN075 OVC100 74 72     94%   75 29.96   0    
Jun 11 15:20 SSE 13 7 Clear   86 76     72%   96 29.95   0    
Jun 11 12:10 SE 7 10 Cloudy FEW019 BKN030 OVC038 83 74     74%   89 30        
Jun 11 09:42 E 8 10 Mostly Cloudy BKN029 79 72     79%   82 30.01        
Jun 11 08:53 ESE 7 10 Mostly Cloudy FEW018 BKN031 76 71     85%   77 30 30.01      
Jun 11 07:53 E 3 9 Clear CLR 74 69     85%   75 29.99 29.99      
Jun 09 23:53 Calm 10 Clear CLR 68 62     81%     29.93 29.93      
Jun 08 18:53 NNE 5 10 Mostly Clear FEW065 81 58     45%   81 29.86 29.87      
Jun 08 16:53 N 5 10 Mostly Clear FEW065 83 56     40%   82 29.88 29.88      
Jun 08 07:53 Calm 10 Clear CLR 67 60     79%     29.96 29.97      
Jun 08 04:53 Calm 10 Clear CLR 61 59     93%     29.91 29.92      
Jun 07 21:53 NNE 5 10 Clear CLR 71 60     68%   71 29.91 29.92      
Jun 06 04:53 W 5 8 Cloudy SCT004 OVC060 71 71     100%   73 29.71 29.72 0    
Jun 05 13:53 Calm 10 Mostly Cloudy BKN025 BKN036 80 70     71%   83 29.73 29.73